Location: Treviso
(45.6669°N, 12.2430°E)
Time: 02:42:30
(UTC+01:00)

ISS - Pass Details

Date: 20 May 2017
Orbit: 402 x 406 km, 51.6° (Epoch: 16 December)

Event Time Altitude Azimuth Distance (km) Brightness Sun altitude
Rises 03:49:38 0° 294° (WNW) 2,359 -0.1 -14.8°
Reaches altitude 10° 03:51:54 10° 305° (NW) 1,491 -1.0 -14.5°
Maximum altitude 03:54:56 31° 10° (N) 749 -1.9 -14.2°
Drops below altitude 10° 03:57:56 10° 75° (ENE) 1,478 -0.1 -13.8°
Sets 04:00:10 0° 86° (E) 2,334 0.8 -13.6°
